Location: Newark
(36.1358°N, 115.1208°W)
Time: 14:09:43
(UTC+00:00)

Vanguard 1 Rocket - Pass Details

Date: 24 February 2020
Orbit: 650 x 4226 km, 34.3° (Epoch: 06 April)

Event Time Altitude Azimuth Distance (km) Brightness Sun altitude
Rises 12:35:28 0° 274° (W) 3,797 - -21.4°
Reaches altitude 10° 12:38:33 10° 271° (W) 2,516 - -20.8°
Exits shadow 12:42:25 42° 253° (WSW) 1,027 7.2 -20.0°
Maximum altitude 12:43:52 63° 191° (S) 760 6.9 -19.7°
Drops below altitude 10° 12:48:10 10° 109° (ESE) 2,045 10.3 -18.8°
Sets 12:50:27 0° 106° (ESE) 3,012 11.5 -18.4°
